GFSSW_prec_cloud_057.txt.gz
Cloud_Cover
100 100 100 100 100 100 100 100 100 100 100 100 100 100 100 100 100 100 100 100 100 100 42 79 100 100 100 100 8 5 1 0 0 0 0 0 0 0 0 0 0 0 0 0 0
100 100 100 100 100 100 100 100 100 100 100 100 100 100 100 100 100 100 100 100 100 100 48 99 100 100 100 76 92 52 0 0 0 0 0 0 0 0 0 0 0 0 0 0 0
100 100 100 100 100 100 100 100 100 100 100 100 100 100 100 100 100 100 100 100 100 96 100 100 100 100 100 52 83 17 0 0 0 0 0 0 0 0 0 0 0 0 0 0 0
100 100 100 100 100 100 100 100 100 100 100 100 100 100 99 100 100 100 100 100 95 100 100 100 100 100 99 99 59 79 8 1 0 0 0 0 0 0 0 0 0 0 0 0 0
100 100 100 100 100 100 100 100 100 100 100 100 100 100 100 100 100 93 97 100 100 100 100 100 100 100 100 74 85 8 5 0 0 0 0 0 0 0 0 0 0 0 0 0 0
100 100 100 100 100 100 100 100 100 100 100 100 100 100 100 100 100 100 100 100 100 100 100 97 86 99 80 77 62 5 4 4 0 0 0 0 0 0 0 0 0 0 0 0 0
100 100 100 100 100 100 100 100 100 100 100 100 100 100 100 100 100 100 100 100 100 100 100 100 100 100 100 98 97 27 5 5 5 0 0 0 0 0 0 0 0 0 0 0 0
100 100 100 100 100 100 100 100 100 100 100 100 100 100 100 100 100 100 100 100 100 100 89 100 100 100 100 100 100 80 5 5 5 4 0 0 0 0 0 0 0 0 0 0 0
100 100 100 100 100 100 100 100 100 100 100 100 100 100 100 100 100 100 100 100 100 100 100 100 100 100 99 100 97 32 6 5 2 0 0 0 0 0 0 0 0 0 0 0 0
100 100 100 100 100 100 100 100 100 100 100 100 100 100 100 100 100 100 100 100 100 100 56 100 100 100 100 98 73 28 5 6 12 5 5 0 0 0 0 0 0 0 0 0 0
100 100 100 100 100 100 100 100 100 100 100 100 100 100 100 100 100 100 100 100 100 100 100 99 100 100 100 62 17 58 50 75 5 4 5 0 0 0 0 0 0 0 0 0 0
100 100 100 100 100 100 100 100 100 100 100 100 100 100 100 100 100 100 100 100 100 100 100 100 100 100 100 100 56 94 56 85 11 5 4 0 0 0 0 0 0 0 0 0 0
100 100 100 100 100 100 100 100 100 100 100 100 100 100 100 100 100 100 100 100 100 100 100 100 100 100 100 100 100 100 100 60 14 5 5 0 0 0 0 0 0 0 0 0 0
100 100 100 100 100 100 100 100 100 100 100 100 100 100 100 100 100 100 100 100 100 100 100 100 100 100 100 100 100 100 100 78 5 5 5 4 4 0 0 0 0 0 0 0 0
100 100 100 100 100 99 100 100 100 100 100 100 100 100 100 100 100 100 100 100 100 100 100 100 100 100 100 100 100 100 100 17 7 5 5 2 0 1 0 0 0 0 0 0 0
100 100 100 100 100 100 98 100 100 100 58 24 73 95 100 100 100 100 100 100 100 100 100 100 100 100 100 100 86 100 91 58 8 5 2 0 0 5 4 2 1 3 0 0 0
100 100 100 100 100 100 100 100 100 100 13 6 85 39 70 81 100 100 100 100 100 98 75 100 100 100 100 100 100 100 100 98 12 5 0 0 0 5 24 5 5 5 5 4 3
100 100 100 100 100 100 100 100 100 88 10 5 7 70 49 54 10 92 100 100 100 100 100 99 93 76 97 100 100 100 98 27 5 4 4 0 1 5 9 8 5 5 5 6 5
100 100 82 100 100 100 100 100 99 80 26 62 100 30 87 79 83 60 22 91 100 100 100 100 100 100 100 100 100 99 79 96 17 5 0 0 1 5 90 100 6 5 6 5 5
100 100 100 99 100 100 100 100 81 56 72 6 100 93 97 96 100 94 58 82 100 100 100 100 100 100 100 100 100 100 100 84 45 14 10 5 5 3 29 19 94 16 0 5 24
100 100 100 100 100 100 100 100 100 84 17 5 62 100 100 76 100 85 100 74 90 100 95 100 95 80 100 100 100 100 100 100 100 100 62 5 3 88 100 100 100 99 6 5 5
71 100 100 100 100 100 100 100 94 100 99 88 98 98 28 98 100 100 73 100 100 100 100 100 49 5 64 100 100 100 100 100 100 100 100 100 5 100 100 100 100 100 70 5 5
100 25 13 100 100 100 100 100 100 94 96 100 95 100 100 100 99 100 88 100 100 100 100 100 100 41 27 5 5 5 53 100 100 100 17 7 2 100 56 70 100 100 100 49 4
99 71 64 83 90 96 100 100 100 100 100 93 86 99 87 87 88 10 8 45 100 97 100 100 100 100 73 94 97 63 80 86 100 97 3 2 1 100 76 96 100 100 80 4 5
96 100 99 72 11 11 19 82 100 100 100 100 100 100 94 100 100 76 89 98 92 100 100 100 100 100 6 82 100 100 100 100 100 22 91 5 35 37 100 100 100 30 5 5 0
100 98 96 62 100 100 64 6 41 6 100 100 100 100 100 100 100 100 100 89 80 100 100 100 100 100 14 59 100 100 100 32 6 5 46 5 4 96 100 100 92 71 25 3 0
99 92 100 62 28 52 59 96 100 78 5 53 96 100 100 100 100 100 100 95 100 100 100 100 100 100 86 91 100 100 27 5 5 5 19 79 13 96 54 100 100 81 5 1 0

GFSSW_prec_cloud_060.txt.gz
Cloud_Cover
100 100 100 100 100 100 100 100 100 100 100 100 100 100 100 100 100 100 100 100 100 100 100 87 69 55 91 72 6 98 73 44 5 0 0 0 0 0 0 0 0 0 0 0 0
100 100 100 100 100 100 100 100 100 100 100 100 100 100 100 100 100 100 100 100 100 100 100 100 94 100 43 7 15 91 64 46 1 0 0 0 0 0 0 0 0 0 0 0 0
100 100 100 100 100 100 100 100 100 100 100 100 100 100 100 100 100 100 97 100 100 100 100 100 100 92 100 81 30 100 98 17 1 5 0 0 0 0 0 0 0 0 0 0 0
100 100 100 100 100 100 100 100 100 100 100 100 100 100 100 100 100 100 100 100 100 50 34 50 90 100 100 69 67 7 8 30 100 5 0 0 0 0 0 0 0 0 0 0 0
100 100 100 100 100 100 100 100 100 100 100 100 100 100 100 100 100 100 100 98 78 57 100 100 100 97 100 75 72 100 57 50 18 0 0 0 0 0 0 0 0 0 0 0 0
100 100 100 100 100 100 100 100 100 100 100 100 100 100 100 100 100 100 100 100 75 100 100 100 85 38 76 17 70 94 57 78 1 5 2 0 0 0 0 0 0 0 0 0 0
100 100 100 100 100 100 100 100 100 100 100 100 100 100 100 100 100 100 100 100 100 79 100 85 87 29 100 100 100 98 72 59 96 5 5 0 0 0 0 0 0 0 0 0 0
100 100 100 100 100 100 100 100 100 100 100 100 100 100 100 100 100 100 100 96 99 99 32 87 85 93 100 100 100 100 76 70 6 5 4 0 0 0 0 0 0 0 0 0 0
100 100 100 100 100 100 100 100 100 100 100 100 100 100 100 100 100 100 100 100 100 53 92 98 71 100 100 100 75 100 100 93 41 6 15 4 0 0 0 0 0 0 0 0 0
100 100 100 100 100 100 100 100 100 100 100 100 100 100 100 100 100 100 100 100 98 29 30 48 97 100 100 27 100 62 73 74 100 22 9 4 0 0 0 0 0 0 0 0 0
100 100 100 100 100 100 100 100 100 100 100 100 100 100 100 100 100 100 100 100 100 100 76 9 96 100 100 19 100 100 100 93 42 60 4 0 4 0 4 0 0 0 0 0 0
100 100 100 100 100 100 100 100 100 100 100 100 100 100 100 100 100 100 100 100 100 100 100 100 100 100 76 44 23 32 12 73 31 47 2 5 10 5 0 0 0 0 0 0 0
100 100 100 100 100 100 100 100 100 100 100 100 100 100 100 100 100 100 100 100 100 100 100 100 100 100 100 86 77 86 92 96 36 12 5 2 18 5 6 5 0 0 0 0 0
100 100 100 100 100 100 100 100 100 100 100 100 100 100 100 100 100 100 100 100 100 100 100 100 100 100 100 100 100 100 100 100 92 5 5 5 74 56 21 5 4 0 0 0 0
100 100 100 100 100 100 100 100 100 100 100 100 100 100 100 100 100 100 100 100 100 100 100 100 100 100 100 100 97 100 100 100 100 39 44 89 80 100 19 5 5 0 0 0 0
100 100 100 100 100 100 100 100 100 100 55 70 99 100 100 100 100 100 100 100 100 100 100 100 100 100 100 100 97 100 93 74 100 53 6 100 84 100 97 16 5 0 0 0 0
100 100 100 100 100 100 100 100 100 100 5 10 84 99 100 100 100 100 100 100 100 100 100 100 100 100 100 100 100 100 92 100 96 30 57 66 59 100 91 98 65 5 0 0 0
100 100 100 100 100 100 100 100 100 54 5 7 71 39 41 98 68 100 100 100 100 100 100 100 100 100 100 100 100 100 99 60 42 59 88 84 93 100 90 100 100 5 4 4 5
100 100 100 100 100 100 100 100 100 64 74 5 6 6 39 83 78 99 94 82 52 95 100 100 100 100 100 100 100 100 97 100 36 7 34 15 91 100 100 100 100 100 73 33 5
100 100 100 100 100 100 100 100 100 100 91 22 58 82 67 45 88 55 46 42 96 100 54 100 100 100 100 100 100 100 100 100 69 6 5 18 96 100 100 100 100 55 5 5 64
100 100 100 100 100 100 98 73 100 100 100 96 98 100 87 100 80 44 66 18 29 23 80 85 26 5 70 100 100 100 100 100 100 100 94 46 26 100 100 100 100 100 100 78 8
100 100 100 100 100 100 100 73 79 100 100 100 80 98 100 100 90 91 49 62 98 100 95 94 60 5 5 11 83 100 100 100 100 100 100 100 36 100 100 100 100 100 100 100 27
100 100 100 100 100 93 79 67 100 100 100 100 100 100 100 100 100 68 88 100 88 98 96 100 94 48 5 5 5 5 77 100 100 99 5 5 4 100 96 100 100 100 100 100 18
100 100 100 100 100 100 100 69 26 100 100 100 100 100 100 44 52 61 100 99 93 94 100 100 100 77 59 94 85 60 90 100 100 57 20 4 28 100 100 100 100 100 79 100 99
100 100 100 100 100 100 100 100 100 33 85 100 75 95 99 100 100 97 100 100 100 100 100 100 100 100 28 99 100 100 100 99 59 5 45 6 4 96 100 100 100 100 100 100 13
100 100 100 100 100 100 100 100 100 100 100 100 100 100 100 100 100 100 100 86 96 100 100 74 100 100 100 100 100 100 100 35 100 50 99 5 5 99 100 92 30 41 71 7 5
100 100 100 100 100 94 97 100 100 100 100 100 100 100 100 100 97 91 72 80 100 100 100 100 100 100 41 99 100 100 5 76 71 96 100 100 3 49 83 100 99 59 94 77 59

GFSSW_prec_cloud_063.txt.gz
Cloud_Cover
100 100 100 100 100 100 100 100 100 100 100 100 100 100 100 100 100 100 100 100 97 100 100 100 98 100 100 89 89 11 8 0 5 100 66 0 0 0 0 0 0 0 0 0 0
100 100 100 100 100 100 100 100 100 100 100 100 100 100 100 100 100 100 98 100 100 100 100 100 100 100 94 40 34 19 13 10 3 35 30 0 0 0 0 0 0 0 0 0 0
100 100 100 100 100 100 100 100 100 100 100 100 100 100 100 100 100 100 100 100 100 77 100 100 100 100 100 100 88 98 99 11 49 86 7 2 3 0 0 0 0 0 0 0 0
100 100 100 100 100 100 100 100 100 100 100 100 100 100 100 100 100 100 100 100 100 97 100 100 100 100 96 90 77 100 100 97 5 5 13 4 0 0 0 0 0 0 0 0 0
100 100 100 100 100 100 100 100 100 100 100 100 100 100 100 100 100 100 100 100 100 87 100 100 100 100 100 100 78 89 100 74 35 98 5 1 0 0 0 0 0 0 0 0 0
100 100 100 100 100 100 100 100 100 100 100 100 100 100 100 100 100 100 100 100 100 100 100 100 100 100 100 24 84 100 100 11 5 5 96 5 2 0 0 0 0 0 0 0 0
100 100 100 100 100 100 100 100 100 100 100 100 100 100 100 100 100 100 100 99 100 100 100 100 100 100 42 41 100 76 24 40 12 68 94 46 5 5 0 0 0 0 0 0 0
100 100 100 100 100 100 100 100 100 100 100 100 100 100 100 100 100 100 100 100 100 100 100 100 100 100 97 100 45 78 22 5 26 100 98 5 48 5 1 0 0 0 0 0 0
100 100 100 100 100 100 100 100 100 100 100 100 100 100 100 100 100 100 100 100 100 100 100 92 96 90 100 100 99 49 31 5 66 100 81 97 11 5 5 0 0 0 0 0 0
100 100 100 100 100 100 100 100 100 100 100 100 100 100 100 100 100 100 100 100 100 100 100 98 10 100 100 100 18 5 7 5 100 70 73 23 9 5 4 0 0 0 0 0 0
100 100 100 100 100 100 100 100 100 100 100 100 100 100 100 100 100 100 100 100 100 100 100 100 92 63 56 27 6 5 22 71 77 19 36 94 79 57 14 0 0 0 0 0 0
100 100 100 100 100 100 100 100 100 100 100 100 100 100 100 100 100 100 100 100 100 100 100 100 100 83 11 5 5 5 6 100 100 59 57 11 56 5 4 5 4 0 0 3 1
100 100 100 100 100 100 100 100 100 100 100 100 100 100 100 100 100 100 100 100 100 100 100 100 100 77 100 78 32 19 25 82 80 91 76 13 47 5 5 5 4 0 3 5 5
100 100 100 100 100 100 100 100 100 100 100 100 100 100 100 100 100 100 100 100 100 100 100 100 82 100 100 100 56 89 13 10 5 5 7 5 50 76 87 5 16 8 5 5 5
100 100 100 100 100 100 100 100 100 100 100 100 100 100 100 100 100 100 100 100 100 100 100 100 100 100 100 100 91 86 35 5 6 5 77 48 100 100 11 5 70 31 5 5 0
100 100 100 100 100 100 100 100 100 100 100 100 100 100 100 100 100 100 100 100 100 100 100 100 100 100 100 100 88 52 100 85 95 85 31 86 77 100 91 16 54 98 51 5 5
100 100 100 100 100 100 100 100 100 100 100 100 100 100 100 100 100 100 100 100 100 100 100 100 100 100 100 100 96 100 100 96 37 6 35 56 74 100 100 100 100 100 100 55 5
100 100 100 100 100 100 100 100 100 96 100 100 100 100 100 100 100 100 100 100 100 100 100 100 100 100 100 100 100 100 100 44 11 33 42 33 68 100 95 100 100 100 100 100 88
100 100 100 100 100 100 100 100 100 86 100 100 100 100 100 97 98 100 100 100 100 100 100 100 100 100 100 100 100 100 100 100 100 29 6 7 37 100 100 100 100 100 100 100 100
100 100 100 100 100 100 100 100 100 100 100 90 100 100 100 100 100 100 100 100 100 100 100 100 100 100 100 100 100 100 100 100 100 100 100 100 100 100 100 100 100 100 100 100 100
100 100 100 100 100 100 100 100 100 100 100 94 79 100 100 100 100 100 100 100 99 100 100 100 90 100 100 100 100 100 100 100 100 100 100 100 100 100 100 100 100 100 100 100 100
100 100 100 100 100 100 100 100 91 100 100 100 100 99 100 98 100 100 100 100 100 100 100 85 86 92 66 6 36 88 70 44 90 79 89 5 26 100 100 100 100 100 100 100 100
100 100 100 100 100 99 100 100 100 100 99 100 100 100 100 100 84 100 100 100 100 100 100 100 30 67 34 12 48 68 68 100 100 19 5 5 51 100 65 100 100 100 100 100 100
100 100 100 100 95 100 100 100 100 100 100 100 100 100 100 100 100 100 100 100 98 97 82 100 76 98 77 95 84 75 96 99 69 18 5 2 88 100 100 100 100 98 87 81 13
100 100 100 100 100 100 100 100 100 100 100 100 100 100 100 100 100 100 100 100 100 100 100 92 98 55 97 100 73 97 94 100 68 65 24 51 5 100 100 100 100 100 29 6 7
100 100 100 100 100 100 100 100 100 100 100 100 100 100 100 100 100 100 100 100 100 95 95 98 100 100 100 100 100 100 47 77 5 21 5 15 13 100 100 100 100 100 99 99 66
100 100 100 100 100 100 100 100 100 100 100 100 100 100 100 100 100 100 100 100 100 94 94 100 100 100 100 100 100 100 5 5 56 93 99 98 22 100 100 100 99 74 66 29 20

GFSSW_prec_cloud_069.txt.gz
Cloud_Cover
100 100 100 100 100 100 100 100 100 100 100 100 100 100 100 100 100 100 98 100 100 100 100 97 34 89 92 32 84 100 27 90 5 3 15 5 0 0 0 0 0 0 0 0 0
100 100 100 100 100 100 100 100 100 100 100 100 100 100 100 100 94 100 100 100 100 100 100 100 81 100 100 98 92 99 100 22 65 100 47 20 71 0 0 0 0 0 0 0 0
100 100 100 100 100 100 100 100 100 100 100 100 100 100 100 100 100 100 100 100 100 100 100 100 100 100 100 100 100 100 6 75 100 100 59 8 4 5 5 0 0 0 0 0 0
100 100 100 100 100 100 100 100 100 100 100 100 100 100 100 100 100 100 100 100 100 100 100 100 100 100 100 99 100 100 30 99 100 100 82 29 7 4 4 0 0 0 0 0 0
100 100 100 100 100 100 100 100 100 100 100 100 100 100 100 100 100 100 100 100 100 100 91 50 98 100 100 100 78 74 93 100 100 100 100 55 86 10 2 1 2 0 0 0 0
100 100 100 100 100 100 100 100 100 100 100 100 100 100 100 100 100 100 100 100 100 100 99 100 100 95 100 60 10 49 19 92 100 100 87 57 20 27 0 2 3 5 0 0 0
100 100 100 100 100 100 100 100 100 100 100 100 100 100 100 100 100 100 100 100 100 100 100 100 100 77 100 99 98 55 63 97 100 100 100 100 39 35 0 0 14 5 0 0 0
100 100 100 100 100 100 100 100 100 100 100 100 100 100 100 100 100 100 100 100 100 100 100 100 100 71 87 91 78 99 59 60 100 100 100 36 15 11 8 2 5 0 5 1 1
100 100 100 100 100 100 100 100 100 100 100 100 100 100 100 100 100 100 100 100 100 100 100 100 100 100 100 96 100 100 100 78 35 100 100 100 64 100 83 3 1 1 3 7 39
100 100 100 100 100 100 100 100 100 100 100 100 100 100 100 100 100 100 100 100 100 100 100 100 100 100 100 97 97 92 47 16 63 92 76 100 100 55 98 70 1 0 5 4 5
100 100 100 100 100 100 100 100 100 100 100 100 100 100 100 100 100 100 100 100 100 100 100 100 100 100 100 100 18 99 53 47 90 100 39 100 96 7 73 6 5 5 1 5 5
100 100 100 100 100 100 100 100 100 100 100 100 100 100 100 100 100 100 100 100 100 100 100 100 100 100 94 100 96 100 80 94 100 94 99 88 100 66 5 9 5 5 5 6 5
100 100 100 100 100 100 100 100 100 100 100 100 100 100 100 100 100 100 100 100 100 100 100 100 100 100 100 100 100 100 98 86 77 94 100 100 100 100 11 5 5 4 5 5 5
100 100 100 100 100 100 100 100 100 100 100 100 100 100 100 100 100 100 100 100 100 100 100 100 100 100 100 100 100 100 100 93 91 98 100 100 100 76 25 5 5 4 3 0 3
100 100 100 100 100 100 100 100 100 100 100 100 100 100 100 100 100 100 100 100 100 100 100 100 100 100 100 100 100 100 100 100 46 98 99 100 100 100 99 73 5 5 5 0 5
100 100 100 100 100 100 100 100 100 100 100 100 100 100 100 100 100 100 100 100 100 100 100 100 100 100 94 100 90 83 11 9 94 98 95 100 100 100 99 5 5 23 5 0 0
100 100 100 100 100 100 100 100 100 100 100 100 100 100 100 100 100 100 100 100 100 100 94 97 100 100 100 100 98 98 96 99 98 93 47 56 71 100 100 82 36 5 5 3 0
100 100 100 100 100 100 100 100 100 100 100 100 100 100 100 100 100 100 100 100 100 100 100 100 100 100 100 100 100 100 94 29 5 5 5 43 89 100 100 100 100 58 5 5 5
100 100 100 100 100 100 100 100 100 100 100 100 100 100 100 100 100 100 100 100 100 100 100 100 100 100 100 100 100 100 100 100 74 5 5 5 28 100 100 82 73 100 100 97 39
100 100 100 100 100 100 100 100 100 100 100 100 100 100 100 100 100 100 100 100 100 100 100 100 100 100 100 100 82 78 92 43 14 5 6 13 78 100 100 24 4 20 100 100 100
100 100 100 100 100 100 100 100 100 100 100 100 100 100 100 100 100 100 100 100 100 100 100 100 100 100 100 100 100 100 100 100 100 59 5 29 95 78 26 12 51 5 6 98 100
100 100 100 100 100 100 100 100 100 100 100 100 100 100 100 100 100 100 100 100 100 100 100 100 100 100 100 100 100 79 30 74 92 94 97 100 100 100 100 100 99 99 96 85 100
100 100 100 100 100 100 100 100 100 100 100 100 100 100 100 100 100 100 100 100 100 100 100 100 100 100 100 100 100 100 100 100 100 100 100 100 100 100 100 100 100 100 93 36 9
100 100 100 100 100 100 100 100 100 100 100 100 100 100 100 100 100 100 100 100 100 100 100 100 100 100 93 100 100 100 100 100 100 92 77 82 100 100 100 100 100 100 57 8 30
100 100 100 100 100 100 100 100 100 100 100 100 100 100 100 100 100 100 100 100 100 100 100 100 100 100 100 95 90 52 57 100 100 100 86 100 100 100 100 100 100 96 6 5 10
100 100 100 100 100 100 100 100 100 100 100 100 100 100 100 100 100 100 100 100 100 100 100 100 100 100 100 100 100 83 68 45 22 23 81 100 100 100 100 100 100 100 100 100 99
100 100 100 100 100 100 100 100 100 100 100 100 100 100 100 100 100 100 100 100 100 100 100 100 100 100 100 100 100 97 83 100 100 93 99 100 100 100 99 100 100 100 98 34 98

GFSSW_prec_cloud_072.txt.gz
Cloud_Cover
100 100 100 100 100 100 100 100 100 100 100 100 100 100 100 100 100 100 100 98 100 100 100 99 100 100 100 97 68 49 74 64 31 29 26 4 4 1 1 0 0 0 0 0 0
100 100 100 100 100 100 100 100 100 100 100 100 100 100 100 100 100 100 100 100 100 100 90 100 100 100 100 94 100 100 42 56 93 15 7 60 5 5 0 0 0 0 0 0 0
100 100 100 100 100 100 100 100 100 100 100 100 100 100 100 100 100 100 100 100 100 100 99 100 100 100 100 54 54 76 42 80 91 72 97 100 69 8 2 0 0 0 0 0 2
100 100 100 100 100 100 100 100 100 100 100 100 100 100 100 100 100 100 100 100 100 100 100 82 100 100 100 94 53 97 100 98 35 92 26 90 100 100 9 0 0 0 0 0 0
100 100 100 100 100 100 100 100 100 100 100 100 100 100 100 100 100 100 100 100 100 100 100 100 100 100 100 99 85 100 100 81 80 38 27 100 100 100 88 4 0 0 0 0 0
100 100 100 100 100 100 100 100 100 100 100 100 100 100 100 100 100 100 100 100 100 100 100 100 100 100 100 100 100 100 100 99 84 66 6 100 100 100 100 6 0 0 0 0 0
100 100 100 100 100 100 100 100 100 100 100 100 100 100 100 100 100 100 100 100 100 100 100 100 100 100 100 100 100 100 100 98 81 19 54 94 100 100 100 88 0 0 0 0 0
100 100 100 100 100 100 100 100 100 100 100 100 100 100 100 100 100 100 100 100 100 100 100 98 100 100 81 100 100 100 100 97 97 49 58 36 86 100 100 72 52 6 5 1 0
100 100 100 100 100 100 100 100 100 100 100 100 100 100 100 100 100 100 100 100 51 100 100 100 100 100 66 100 100 100 100 97 73 88 82 66 49 100 100 100 100 5 13 3 1
100 100 100 100 100 100 100 100 100 100 100 100 100 100 100 100 100 100 100 100 99 98 100 100 92 100 100 100 100 100 100 31 70 100 99 69 80 83 100 97 45 71 14 5 0
100 100 100 100 100 100 100 100 100 100 100 100 100 100 100 100 100 100 100 100 100 100 100 100 100 100 100 100 100 100 87 70 82 100 100 79 31 100 52 100 100 100 0 3 0
100 100 100 100 100 100 100 100 100 100 100 100 100 100 100 100 100 100 100 100 100 100 100 99 100 100 98 71 100 100 100 100 100 100 85 78 46 64 79 95 100 99 47 1 0
100 100 100 100 100 100 100 100 100 100 100 100 100 100 100 100 100 100 100 100 100 100 100 100 100 100 100 77 97 100 100 100 100 99 58 84 90 36 5 30 100 100 25 7 1
100 100 100 100 100 100 100 100 100 100 100 100 100 100 100 100 100 100 100 100 100 100 100 100 87 96 100 100 98 100 100 70 100 60 100 62 55 100 19 18 53 99 89 39 6
100 100 100 100 100 100 100 100 100 100 100 100 100 100 100 100 100 100 100 100 100 100 100 100 100 100 100 100 100 100 100 100 100 16 99 99 98 100 100 100 85 48 97 32 4
100 100 100 100 100 100 100 100 100 100 100 100 100 100 100 100 100 100 100 95 100 100 100 100 100 84 100 100 100 100 93 100 100 39 38 38 38 100 100 87 92 98 71 77 5
100 100 100 100 100 100 100 100 100 100 100 100 100 100 100 100 100 100 100 98 100 100 94 30 100 92 97 100 100 100 100 96 100 100 98 65 82 88 95 100 90 84 5 5 5
100 100 100 100 100 100 100 100 100 100 100 100 100 100 100 100 100 100 100 100 100 100 100 100 100 100 100 100 100 100 100 100 57 36 6 9 16 5 9 100 100 22 5 5 5
100 100 100 100 100 100 100 100 100 100 100 100 100 100 100 100 100 100 100 100 100 100 100 100 100 100 100 100 100 100 89 100 75 60 6 89 85 11 28 97 53 99 100 97 16
100 100 100 100 100 100 100 100 100 100 100 100 100 100 100 100 100 100 100 100 100 100 100 100 100 100 100 100 100 100 100 100 50 30 31 14 56 88 27 33 82 43 100 100 100
100 100 100 100 100 100 100 100 100 100 100 100 100 100 100 100 100 100 100 100 100 100 100 100 100 100 100 100 100 100 100 100 100 95 28 28 55 18 21 7 9 6 66 35 89
100 100 100 100 100 100 100 100 100 100 100 100 100 100 100 100 100 100 100 100 100 100 100 100 100 100 100 100 100 100 96 86 100 92 95 45 10 30 31 27 22 17 30 88 59
100 100 100 100 100 100 100 100 100 100 100 100 100 100 100 100 100 100 100 100 100 100 100 100 100 89 70 58 75 9 15 37 95 100 100 68 20 71 51 56 17 36 36 28 69
100 100 100 100 100 100 100 100 100 100 100 100 100 100 100 100 100 100 100 100 99 100 100 100 90 92 76 49 100 100 100 100 100 99 86 98 100 68 100 100 55 83 100 100 100
100 100 100 100 100 100 100 100 100 100 100 100 100 100 100 100 100 100 100 100 100 100 100 100 100 100 100 95 100 100 100 100 100 77 83 86 100 100 100 100 100 100 100 90 59
100 100 100 100 100 100 100 100 100 100 100 100 100 100 100 100 100 100 100 100 100 100 100 100 100 100 100 100 100 100 100 100 100 100 100 99 100 100 100 100 100 52 5 8 48
100 100 100 100 100 100 100 100 100 100 100 100 100 100 100 100 100 100 100 100 100 100 100 100 100 100 100 100 100 100 100 100 100 100 100 100 100 100 100 100 100 100 96 94 74

GFSSW_prec_cloud_075.txt.gz
Cloud_Cover
94 100 100 100 100 100 100 100 100 100 100 100 100 100 100 100 100 100 100 100 100 100 100 100 100 100 100 100 100 100 100 100 100 100 100 20 5 2 0 2 0 0 0 0 4
100 100 100 100 100 100 100 100 100 100 100 100 100 100 100 100 100 100 100 100 100 100 94 100 100 100 100 100 100 100 79 80 29 15 68 77 5 5 18 5 0 0 0 1 25
99 100 100 100 100 100 100 100 100 100 100 100 100 100 100 100 100 100 100 100 100 100 100 100 71 93 100 100 100 100 100 27 87 100 38 19 36 100 100 65 0 0 0 14 39
99 100 100 100 100 100 100 100 100 100 100 100 100 100 100 100 100 100 100 100 100 100 96 100 100 100 93 100 95 100 94 90 100 93 34 52 7 5 100 95 94 30 0 10 32
100 100 100 100 100 100 100 100 100 100 100 100 100 100 100 100 100 100 100 100 100 100 100 100 100 100 100 100 100 100 100 99 64 91 100 100 7 42 100 100 87 13 0 0 0
100 100 100 100 100 100 100 100 100 100 100 100 100 100 100 100 100 100 100 94 100 100 100 100 100 100 100 100 89 100 56 88 68 100 100 100 77 78 100 100 100 81 2 0 0
100 100 100 100 100 100 100 100 100 100 100 100 100 100 100 100 100 100 100 99 100 100 100 100 100 100 100 100 100 96 100 51 100 100 100 88 48 98 95 100 100 100 6 3 0
100 100 100 100 100 100 100 100 100 100 100 100 100 100 100 100 100 100 100 100 100 100 100 100 100 100 100 94 100 97 100 99 100 100 95 100 5 34 50 96 80 100 100 58 0
100 100 100 100 100 100 100 100 100 100 100 100 100 100 100 100 100 100 100 100 100 100 91 99 100 100 100 100 66 95 100 100 100 62 90 100 12 5 64 81 72 100 57 21 0
100 100 100 100 100 100 100 100 100 100 100 100 100 100 100 100 100 100 100 100 100 99 87 34 73 100 100 100 100 100 100 100 100 96 100 100 87 7 8 7 5 72 26 40 2
100 100 100 97 100 100 100 100 100 100 100 100 100 100 100 100 100 100 100 100 100 100 75 100 100 100 100 100 100 100 100 14 100 100 100 100 94 100 99 10 65 91 32 100 76
100 100 100 100 100 100 100 100 100 100 100 100 100 100 100 100 100 100 100 100 100 100 96 100 99 100 100 100 33 100 33 29 97 100 100 100 100 70 78 71 23 20 16 8 24
100 100 100 100 100 100 100 100 100 100 100 100 100 100 100 100 100 100 100 100 100 100 100 100 100 98 100 99 36 84 100 100 100 100 20 80 89 99 99 80 18 5 5 9 8
100 100 100 100 99 100 100 100 100 100 100 100 100 100 100 100 100 100 100 100 100 100 100 100 100 91 86 100 87 95 100 67 100 100 100 100 92 98 67 6 10 31 5 7 5
100 100 100 100 100 100 100 100 100 100 100 100 100 100 100 100 100 100 100 100 100 100 100 100 100 99 100 100 97 76 100 38 27 56 96 100 100 100 100 100 100 47 86 5 74
100 100 100 100 100 100 100 100 100 100 100 100 100 100 100 100 100 100 100 100 100 100 100 100 100 100 98 100 86 100 76 44 40 100 77 99 52 100 100 81 11 83 5 9 5
100 100 100 100 100 100 100 100 100 100 100 100 100 100 100 100 100 100 100 100 100 100 100 100 100 100 100 100 72 100 100 50 100 85 100 100 100 100 100 100 97 15 5 6 5
100 100 100 100 100 100 100 100 100 100 100 100 100 100 100 100 100 100 100 100 100 100 100 100 100 100 100 100 100 100 100 100 100 42 80 100 100 100 100 100 100 54 4 5 5
100 100 100 100 100 100 100 100 100 100 100 100 100 100 100 100 100 100 100 100 100 100 100 100 100 100 100 100 100 100 100 100 100 65 5 5 72 51 77 47 52 41 19 8 5
100 100 100 100 100 100 100 100 100 100 100 100 100 100 100 100 100 100 100 100 100 100 100 100 100 100 100 100 100 67 100 96 73 7 13 97 100 72 16 62 12 68 100 100 43
100 100 100 100 100 100 100 8 100 100 100 100 100 100 100 100 100 100 100 100 100 100 100 100 100 100 100 100 100 100 100 100 100 91 100 29 27 16 5 11 55 81 53 52 100
100 100 100 100 100 100 100 10 100 100 100 100 100 100 100 100 100 100 100 100 100 100 100 100 100 100 100 100 100 100 100 100 100 48 38 95 76 36 57 94 100 100 41 100 100
100 100 100 100 100 100 100 100 100 100 100 100 100 100 100 100 100 100 100 100 100 100 100 100 100 100 100 100 100 100 100 99 94 99 86 96 55 98 95 88 98 100 100 100 59
100 100 100 100 100 100 100 100 100 100 100 100 100 100 100 100 100 100 100 100 100 100 100 100 100 100 91 80 100 100 100 100 100 94 36 66 48 47 57 75 100 100 100 86 86
100 100 100 100 100 100 100 100 100 100 100 100 100 100 100 100 100 100 100 100 100 100 100 100 100 99 100 100 100 100 99 100 98 88 98 96 100 100 93 100 68 62 93 82 97
100 100 100 100 100 100 100 100 100 100 100 100 100 100 100 100 100 100 100 100 100 100 100 100 98 96 82 63 88 100 100 100 75 52 7 43 100 100 100 100 100 100 100 83 32
100 100 100 100 100 100 100 100 100 100 100 100 100 100 100 100 100 100 100 100 100 100 100 100 100 100 99 94 97 94 63 96 100 100 100 100 100 100 100 69 54 61 86 49 98